Пюи-де-Дом

Франция     45°46′19″N   3°05′00″E
темп.,
°C
ветер,
м/с
пор.,
м/с
влажн.,
%
обл.,
%
осадки,
мм/ч
давл.,
гПа
погр.,
м
18 апреля, вс
вс1823:00+2с388999 0.1 1022553
02:00+2ссз258899 0.2 1022260
05:00+2зсз229282 0.1 102275
08:00+1зсз129495 0.1 102288
11:00+4с3690100 0.3 1022769
14:00+5с3575100 0.6 10211021
17:00+6с3679100 0.3 1021918
20:00+4с269098 0.7 1022417
19 апреля, пн
пн1923:00+3сз129555 0.1 102347
02:00+1сз119650 0.2 102317
05:000зсз119776 0.0 102214
08:00+2с019768 0.0 102161
11:00+6св248195 0.2 1021886
14:00+9св346087 0.4 10201323
17:00+9ссв235521 0.1 10181348
20:00+6в01727 0.1 101814
20 апреля, вт
вт2023:00+2зюз11872 0.0 102015
02:00+1ююз11893 0.0 101910
05:000ююз22933 0.0 101919
08:00+2ю22840 0.0 101858
11:00+10вюв23524 0.0 1016887
14:00+13в334397 0.1 10141858
17:00+11ссв1259100 0.9 10131384
20:00+6ссв129692 3.9 101584
21 апреля, ср
ср2123:00+5юв1199100 1.0 101745
02:00+5юв1198100 1.1 101634
05:00+5вюв1299100 0.0 101696
08:00+5ююв1197100 0.8 1016172
11:00+5в1298100 1.5 1017331
14:00+5юв2897100 1.9 1017618
17:00+7юв258879 0.1 1016582
20:00+5юв269181 0.1 1017509
22 апреля, чт
чт2223:00+3ююв239828 0.0 1019100
02:00+4юв239661 0.0 1019168
05:00+2ю239716 0.0 101948
08:00+4ю12925 0.0 102070
11:00+10вюв34605 0.0 1019842
14:00+13в345333 0.0 10181455
17:00+12св236169 0.1 10181031
20:00+10ссв267417 0.2 1018256